Weather History for Erwin, NC

Change the Weather History Date:

Friday, September 13, 2013

  Actual Average Record
Temperature  
Mean Temperature 78 °F -  
Max Temperature 86 °F 84 °F 97 °F (1983)
Min Temperature 69 °F 60 °F 46 °F (1976)
Cooling Degree Days 12    
Growing Degree Days 28 (Base 50)    
Moisture  
Dew Point 63 °F    
Average Humidity 65    
Maximum Humidity 98    
Minimum Humidity 34    
Precipitation  
Precipitation 0.00 in - - ()
Sea Level Pressure  
Sea Level Pressure 29.81 in    
Wind  
Wind Speed 2 mph (NW)    
Max Wind Speed 7 mph    
Max Gust Speed -    
Visibility 9 miles    
Events      
Averages and records for this station are not official NWS values.
T = Trace of Precipitation, MM = Missing Value Source: NWS Daily Summary

Daily Weather History Graph

Daily Weather History Graph

Search for Another Location

Airport:

Trip Planner

Search our weather history database for the weather conditions in past years. The results will help you decide how hot, cold, wet, or windy it might be!

Date:

Astronomy

Sep. 13, 2013 Rise Set
Actual Time 6:56 AM EDT 7:24 PM EDT
Civil Twilight 6:30 AM EDT 7:50 PM EDT
Nautical Twilight 6:00 AM EDT 8:19 PM EDT
Astronomical Twilight 5:30 AM EDT 8:50 PM EDT
Moon 3:03 PM EDT (9/13) 12:33 AM EDT (9/13)
Length of Visible Light 13h 19m
Length of Day
12h 28m
First Quarter, 61% of the Moon is Illuminated
Sep 13
First Quarter
Sep 19
Full
Sep 26
Last Quarter
Oct 4
New
Oct 11
First Quarter

Hourly Weather History & Observations

Time (EDT) Temp. Heat Index Dew Point Humidity Pressure Visibility Wind Dir Wind Speed Gust Speed Precip Events Conditions
12:15 AM 74.3 °F - 68.9 °F 83% 29.82 in 10.0 mi South 3.5 mph - N/A   Clear
12:35 AM 74.7 °F - 69.1 °F 83% 29.81 in 10.0 mi Calm Calm - N/A   Clear
12:55 AM 74.3 °F - 69.1 °F 84% 29.81 in 10.0 mi Calm Calm - N/A   Clear
1:15 AM 73.8 °F - 71.2 °F 92% 29.81 in 10.0 mi Calm Calm - N/A   Clear
1:35 AM 73.8 °F - 71.2 °F 92% 29.81 in 10.0 mi Calm Calm - N/A   Clear
1:55 AM 72.9 °F - 70.9 °F 93% 29.81 in 10.0 mi Calm Calm - N/A   Clear
2:15 AM 74.5 °F - 69.3 °F 84% 29.81 in 10.0 mi Calm Calm - N/A   Clear
2:35 AM 73.2 °F - 70.0 °F 90% 29.80 in 10.0 mi Calm Calm - N/A   Clear
2:55 AM 73.0 °F - 70.0 °F 90% 29.79 in 10.0 mi Calm Calm - N/A   Clear
3:15 AM 72.7 °F - 70.3 °F 92% 29.79 in 10.0 mi Calm Calm - N/A   Clear
3:35 AM 72.1 °F - 70.0 °F 93% 29.78 in 10.0 mi Calm Calm - N/A   Clear
3:55 AM 71.4 °F - 70.0 °F 95% 29.78 in 7.0 mi Calm Calm - N/A   Clear
4:15 AM 71.4 °F - 70.0 °F 95% 29.78 in 7.0 mi Calm Calm - N/A   Clear
4:35 AM 71.6 °F - 70.3 °F 96% 29.78 in 7.0 mi Calm Calm - N/A   Clear
4:55 AM 71.1 °F - 70.2 °F 97% 29.78 in 7.0 mi Calm Calm - N/A   Clear
5:15 AM 71.2 °F - 69.8 °F 95% 29.78 in 10.0 mi Calm Calm - N/A   Clear
5:35 AM 70.5 °F - 69.3 °F 96% 29.78 in 7.0 mi Calm Calm - N/A   Clear
5:55 AM 70.9 °F - 69.3 °F 95% 29.78 in 10.0 mi Calm Calm - N/A   Clear
6:15 AM 70.7 °F - 69.3 °F 95% 29.78 in 7.0 mi Calm Calm - N/A   Clear
6:35 AM 70.5 °F - 69.4 °F 96% 29.79 in 7.0 mi Calm Calm - N/A   Clear
6:55 AM 69.6 °F - 68.9 °F 98% 29.80 in 5.0 mi Calm Calm - N/A   Scattered Clouds
7:15 AM 70.0 °F - 69.1 °F 97% 29.81 in 5.0 mi Calm Calm - N/A   Mostly Cloudy
7:35 AM 70.3 °F - 68.9 °F 95% 29.81 in 7.0 mi Calm Calm - N/A   Mostly Cloudy
7:55 AM 70.7 °F - 69.3 °F 95% 29.81 in 7.0 mi Calm Calm - N/A   Scattered Clouds
8:15 AM 71.2 °F - 69.6 °F 95% 29.82 in 7.0 mi Calm Calm - N/A   Mostly Cloudy
8:35 AM 72.5 °F - 69.8 °F 91% 29.82 in 10.0 mi Calm Calm - N/A   Mostly Cloudy
8:55 AM 72.9 °F - 70.0 °F 91% 29.82 in 10.0 mi Calm Calm - N/A   Mostly Cloudy
9:15 AM 74.5 °F - 68.7 °F 82% 29.82 in 10.0 mi Calm Calm - N/A   Scattered Clouds
9:35 AM 76.3 °F - 66.7 °F 72% 29.82 in 10.0 mi NW 3.5 mph - N/A   Clear
9:55 AM 78.8 °F - 65.1 °F 63% 29.82 in 10.0 mi NNW 3.5 mph - N/A   Clear
10:15 AM 79.7 °F - 63.7 °F 58% 29.82 in 10.0 mi NNW 4.6 mph - N/A   Clear
10:35 AM 80.2 °F 81.5 °F 62.8 °F 55% 29.82 in 10.0 mi NW 4.6 mph - N/A   Clear
10:55 AM 81.3 °F 82.5 °F 62.6 °F 53% 29.82 in 10.0 mi NNW 6.9 mph - N/A   Clear
11:15 AM 82.4 °F 83.2 °F 62.1 °F 50% 29.82 in 10.0 mi NW 5.8 mph - N/A   Clear
11:35 AM 82.4 °F 83.2 °F 62.2 °F 50% 29.82 in 10.0 mi NNW 5.8 mph - N/A   Clear
11:55 AM 82.9 °F 83.5 °F 61.2 °F 48% 29.81 in 10.0 mi NNW 5.8 mph - N/A   Clear
12:15 PM 84.2 °F 84.4 °F 60.6 °F 45% 29.81 in 10.0 mi NNW 4.6 mph - N/A   Clear
12:35 PM 84.7 °F 84.4 °F 59.4 °F 42% 29.81 in 10.0 mi North 5.8 mph - N/A   Clear
12:55 PM 84.6 °F 84.4 °F 60.1 °F 43% 29.80 in 10.0 mi NNW 3.5 mph - N/A   Clear
1:15 PM 84.7 °F 84.2 °F 58.8 °F 41% 29.80 in 10.0 mi Calm Calm - N/A   Clear
1:35 PM 85.1 °F 85.0 °F 60.1 °F 43% 29.79 in 10.0 mi NNW 4.6 mph - N/A   Scattered Clouds
1:55 PM 85.1 °F 84.8 °F 59.4 °F 42% 29.79 in 10.0 mi West 5.8 mph - N/A   Clear
2:15 PM 85.8 °F 85.2 °F 58.8 °F 40% 29.79 in 10.0 mi NNW 4.6 mph - N/A   Scattered Clouds
2:35 PM 85.8 °F 85.0 °F 57.9 °F 39% 29.78 in 10.0 mi NW 5.8 mph - N/A   Scattered Clouds
2:55 PM 84.6 °F 83.9 °F 57.6 °F 40% 29.77 in 10.0 mi WNW 3.5 mph - N/A   Clear
3:15 PM 84.6 °F 83.9 °F 57.9 °F 40% 29.77 in 10.0 mi West 3.5 mph - N/A   Scattered Clouds
3:35 PM 86.0 °F 84.9 °F 56.7 °F 37% 29.77 in 10.0 mi NW 4.6 mph - N/A   Mostly Cloudy
3:55 PM 84.9 °F 84.2 °F 58.3 °F 40% 29.76 in 10.0 mi Calm Calm - N/A   Scattered Clouds
4:15 PM 86.0 °F 84.9 °F 57.2 °F 37% 29.77 in 10.0 mi NW 3.5 mph - N/A   Scattered Clouds
4:35 PM 86.7 °F 85.1 °F 55.6 °F 34% 29.77 in 10.0 mi NW 3.5 mph - N/A   Scattered Clouds
4:55 PM 85.8 °F 84.7 °F 57.0 °F 37% 29.77 in 10.0 mi NW 3.5 mph - N/A   Mostly Cloudy
5:15 PM 86.0 °F 84.9 °F 57.2 °F 37% 29.77 in 10.0 mi NNW 3.5 mph - N/A   Scattered Clouds
5:35 PM 85.3 °F 84.6 °F 58.1 °F 40% 29.77 in 10.0 mi NNW 3.5 mph - N/A   Scattered Clouds
5:55 PM 84.9 °F 84.1 °F 57.4 °F 39% 29.77 in 10.0 mi Calm Calm - N/A   Clear
6:15 PM 84.2 °F 83.3 °F 56.7 °F 39% 29.77 in 10.0 mi NNW 3.5 mph - N/A   Clear
6:35 PM 81.9 °F 81.9 °F 58.3 °F 45% 29.78 in 10.0 mi NNW 5.8 mph - N/A   Scattered Clouds
6:55 PM 81.0 °F 81.0 °F 57.4 °F 44% 29.79 in 10.0 mi NNW 3.5 mph - N/A   Overcast
7:15 PM 79.7 °F - 55.8 °F 44% 29.79 in 10.0 mi NNW 4.6 mph - N/A   Overcast
7:35 PM 78.4 °F - 54.5 °F 43% 29.81 in 10.0 mi NNW 4.6 mph - N/A   Mostly Cloudy
7:55 PM 76.5 °F - 55.8 °F 49% 29.81 in 10.0 mi Calm Calm - N/A   Scattered Clouds
8:15 PM 75.2 °F - 56.3 °F 52% 29.83 in 10.0 mi Calm Calm - N/A   Scattered Clouds
8:35 PM 73.4 °F - 56.3 °F 55% 29.84 in 10.0 mi Calm Calm - N/A   Scattered Clouds
8:55 PM 72.9 °F - 56.5 °F 56% 29.85 in 10.0 mi Calm Calm - N/A   Scattered Clouds
9:15 PM 72.1 °F - 56.7 °F 58% 29.85 in 10.0 mi Calm Calm - N/A   Scattered Clouds
9:35 PM 70.5 °F - 57.2 °F 63% 29.86 in 10.0 mi Calm Calm - N/A   Clear
9:55 PM 70.7 °F - 57.4 °F 63% 29.87 in 10.0 mi Calm Calm - N/A   Scattered Clouds
10:15 PM 71.2 °F - 56.5 °F 60% 29.87 in 10.0 mi North 3.5 mph - N/A   Mostly Cloudy
10:35 PM 72.1 °F - 54.5 °F 54% 29.87 in 10.0 mi North 3.5 mph - N/A   Mostly Cloudy
10:55 PM 72.0 °F - 54.7 °F 54% 29.88 in 10.0 mi Calm Calm - N/A   Overcast
11:15 PM 71.6 °F - 55.2 °F 56% 29.88 in 10.0 mi Calm Calm - N/A   Overcast
11:35 PM 71.2 °F - 56.1 °F 59% 29.88 in 10.0 mi Calm Calm - N/A   Overcast
11:55 PM 70.7 °F - 56.5 °F 61% 29.88 in 10.0 mi North 3.5 mph - N/A   Overcast